GW6367 Weather Reports


time (UTC)temp
C
wind
direction
speed
KPH
gust
KPH
rain 1hr
cm
rain 24hr
cm
rain mn
cm
humidity
%
barometer
mb
20260505095353 22 295 6.4 9.7 0.00 0.00 0.00 84 1008.0
20260505094853 22 238 6.4 14.5 0.00 0.00 0.00 83 1008.0
20260505094353 22 282 8.0 14.5 0.00 0.00 0.00 82 1008.0
20260505093854 22 253 9.7 11.3 0.00 0.00 0.00 80 1008.0
20260505093355 23 276 6.4 14.5 0.00 0.00 0.00 78 1008.0
20260505092853 23 242 11.3 12.9 0.00 0.00 0.00 78 1008.0
20260505092353 22 278 4.8 14.5 0.00 0.00 0.00 79 1008.0
20260505091854 22 246 8.0 14.5 0.00 0.00 0.00 80 1008.0
20260505091353 22 340 4.8 19.3 0.00 0.00 0.00 80 1008.0
20260505090854 22 294 4.8 17.7 0.00 0.00 0.00 79 1008.0
20260505090353 23 238 9.7 16.1 0.00 0.00 0.00 79 1008.0
20260505085854 23 285 8.0 16.1 0.00 0.00 0.00 77 1008.0
20260505085353 23 233 6.4 12.9 0.00 0.00 0.00 76 1008.0
20260505084854 24 266 11.3 14.5 0.00 0.00 0.00 74 1008.0
20260505084353 25 256 4.8 11.3 0.00 0.00 0.00 71 1008.0
20260505083853 25 239 4.8 11.3 0.00 0.00 0.00 70 1007.0
20260505083353 25 309 8.0 11.3 0.00 0.00 0.00 69 1007.0
20260505082854 25 246 11.3 17.7 0.00 0.00 0.00 68 1008.0
20260505082353 25 231 3.2 12.9 0.00 0.00 0.00 67 1008.0
20260505081853 25 214 11.3 16.1 0.00 0.00 0.00 67 1008.0
20260505081354 25 269 8.0 17.7 0.00 0.00 0.00 66 1008.0
20260505080854 25 282 6.4 20.9 0.00 0.00 0.00 65 1008.0
20260505080353 25 241 6.4 17.7 0.00 0.00 0.00 65 1008.0
20260505075853 25 243 9.7 14.5 0.00 0.00 0.00 63 1008.0
20260505075353 26 239 4.8 14.5 0.00 0.00 0.00 63 1008.0
20260505074855 26 295 6.4 11.3 0.00 0.00 0.00 63 1008.0
20260505074354 26 316 9.7 12.9 0.00 0.00 0.00 63 1008.0
20260505073854 26 302 14.5 16.1 0.00 0.00 0.00 63 1008.0
20260505073353 25 256 6.4 14.5 0.00 0.00 0.00 64 1008.0
20260505072853 26 260 6.4 9.7 0.00 0.00 0.00 62 1008.0
20260505072355 25 267 11.3 16.1 0.00 0.00 0.00 64 1008.0
20260505071854 25 207 6.4 9.7 0.00 0.00 0.00 65 1008.0
20260505071353 25 225 6.4 12.9 0.00 0.00 0.00 64 1008.0
20260505070853 25 250 6.4 14.5 0.00 0.00 0.00 65 1008.0
20260505070353 25 308 8.0 11.3 0.00 0.00 0.00 66 1009.0
20260505065853 25 285 4.8 12.9 0.00 0.00 0.00 66 1009.0
20260505065355 25 242 8.0 8.0 0.00 0.00 0.00 65 1009.0
20260505064853 25 230 6.4 14.5 0.00 0.00 0.00 66 1009.0
20260505064353 25 292 6.4 12.9 0.00 0.00 0.00 66 1009.0
20260505063853 25 250 11.3 17.7 0.00 0.00 0.00 67 1009.0
20260505063353 25 241 6.4 9.7 0.00 0.00 0.00 66 1009.0
20260505062854 25 287 6.4 16.1 0.00 0.00 0.00 65 1009.0
20260505062353 25 242 4.8 14.5 0.00 0.00 0.00 65 1009.0
20260505061853 24 299 9.7 12.9 0.00 0.00 0.00 67 1009.0
20260505061353 25 272 9.7 12.9 0.00 0.00 0.00 66 1009.0
20260505060853 25 272 6.4 12.9 0.00 0.00 0.00 65 1009.0
20260505060353 25 288 8.0 12.9 0.00 0.00 0.00 65 1009.0
20260505055853 25 244 9.7 17.7 0.00 0.00 0.00 64 1009.0
20260505055354 25 254 8.0 12.9 0.00 0.00 0.00 64 1010.0
20260505054853 25 309 8.0 14.5 0.00 0.00 0.00 62 1009.0
20260505054353 25 275 4.8 14.5 0.00 0.00 0.00 64 1009.0
20260505053855 24 227 3.2 14.5 0.00 0.00 0.00 66 1009.0
20260505053353 25 258 11.3 20.9 0.00 0.00 0.00 65 1010.0
20260505052853 25 264 8.0 12.9 0.00 0.00 0.00 64 1010.0
20260505052354 26 244 9.7 12.9 0.00 0.00 0.00 61 1010.0
20260505051853 26 264 8.0 12.9 0.00 0.00 0.00 61 1010.0
20260505051353 25 247 9.7 12.9 0.00 0.00 0.00 63 1010.0
20260505050853 25 229 8.0 11.3 0.00 0.00 0.00 64 1010.0
20260505050353 25 283 6.4 14.5 0.00 0.00 0.00 64 1010.0
20260505041422 25 269 8.0 16.1 0.00 0.00 0.00 62 1011.0
20260505040854 26 283 3.2 11.3 0.00 0.00 0.00 60 1011.0
20260505035915 25 279 4.8 9.7 0.00 0.00 0.00 59 1011.0
20260505035356 26 272 8.0 9.7 0.00 0.00 0.00 57 1011.0
20260505034853 27 310 3.2 14.5 0.00 0.00 0.00 55 1011.0
20260505034353 26 309 3.2 6.4 0.00 0.00 0.00 57 1011.0
20260505033853 25 226 3.2 12.9 0.00 0.00 0.00 61 1011.0
20260505033353 25 265 4.8 11.3 0.00 0.00 0.00 60 1011.0
20260505032853 26 282 4.8 16.1 0.00 0.00 0.00 58 1011.0
20260505032354 25 275 4.8 4.8 0.00 0.00 0.00 57 1011.0
20260505031853 26 240 8.0 11.3 0.00 0.00 0.00 54 1012.0
20260505031353 26 169 1.6 8.0 0.00 0.00 0.00 53 1012.0
20260505030854 26 239 6.4 11.3 0.00 0.00 0.00 55 1012.0
20260505030355 26 160 0.0 4.8 0.00 0.00 0.00 53 1012.0
20260505025855 26 77 1.6 8.0 0.00 0.00 0.00 53 1012.0
20260505025355 25 33 4.8 11.3 0.00 0.00 0.00 54 1012.0
20260505024855 26 305 4.8 9.7 0.00 0.00 0.00 52 1012.0
20260505024356 26 289 3.2 8.0 0.00 0.00 0.00 50 1012.0
20260505023853 26 96 4.8 8.0 0.00 0.00 0.00 50 1012.0
20260505023355 26 197 4.8 8.0 0.00 0.00 0.00 49 1012.0
20260505022855 26 175 6.4 6.4 0.00 0.00 0.00 49 1012.0
20260505022356 25 327 8.0 8.0 0.00 0.00 0.00 50 1012.0
20260505021855 26 339 6.4 8.0 0.00 0.00 0.00 50 1011.0
20260505021356 26 227 4.8 8.0 0.00 0.00 0.00 49 1012.0
20260505020854 25 294 3.2 8.0 0.00 0.00 0.00 51 1012.0
20260505020354 25 268 4.8 6.4 0.00 0.00 0.00 52 1012.0
20260505015853 25 273 3.2 8.0 0.00 0.00 0.00 52 1012.0
20260505015353 25 22 8.0 8.0 0.00 0.00 0.00 52 1012.0
20260505014854 25 180 3.2 6.4 0.00 0.00 0.00 51 1012.0
20260505014353 25 9 8.0 8.0 0.00 0.00 0.00 52 1012.0
20260505013853 24 206 4.8 8.0 0.00 0.00 0.00 51 1012.0
20260505013353 25 13 3.2 8.0 0.00 0.00 0.00 52 1012.0
20260505012853 25 214 4.8 6.4 0.00 0.00 0.00 52 1012.0
20260505012353 23 218 3.2 6.4 0.00 0.00 0.00 52 1012.0
20260505011854 23 164 1.6 4.8 0.00 0.00 0.00 54 1012.0
20260505011353 23 32 8.0 9.7 0.00 0.00 0.00 54 1012.0
20260505010854 23 247 1.6 9.7 0.00 0.00 0.00 53 1012.0
20260505010354 23 350 4.8 6.4 0.00 0.00 0.00 59 1013.0
20260505005855 23 57 1.6 6.4 0.00 0.00 0.00 57 1013.0
20260505005356 23 332 4.8 11.3 0.00 0.00 0.00 57 1013.0
20260505004854 23 305 4.8 8.0 0.00 0.00 0.00 59 1012.0
20260505004353 22 356 1.6 9.7 0.00 0.00 0.00 61 1012.0
20260505003853 21 216 1.6 8.0 0.00 0.00 0.00 63 1013.0
20260505003353 22 34 3.2 8.0 0.00 0.00 0.00 62 1013.0
20260505002853 22 301 6.4 9.7 0.00 0.00 0.00 63 1013.0
20260505002353 22 26 3.2 8.0 0.00 0.00 0.00 63 1012.0
20260505001855 22 332 4.8 11.3 0.00 0.00 0.00 64 1012.0
20260505001353 22 17 0.0 6.4 0.00 0.00 0.00 64 1013.0
20260505000853 22 270 6.4 12.9 0.00 0.00 0.00 64 1012.0
20260505000353 22 269 1.6 6.4 0.00 0.00 0.00 65 1012.0
20260504235853 21 216 3.2 8.0 0.00 0.00 0.00 67 1012.0
20260504235355 21 217 4.8 8.0 0.00 0.00 0.00 69 1012.0
20260504234853 21 214 3.2 8.0 0.00 0.00 0.00 70 1012.0
20260504234353 21 262 1.6 8.0 0.00 0.00 0.00 70 1012.0
20260504233853 21 20 3.2 9.7 0.00 0.00 0.00 71 1012.0
20260504233353 21 235 4.8 8.0 0.00 0.00 0.00 72 1012.0
20260504232853 21 265 0.0 9.7 0.00 0.00 0.00 72 1012.0
20260504232353 21 346 3.2 6.4 0.00 0.00 0.00 73 1012.0
20260504231854 20 280 4.8 4.8 0.00 0.00 0.00 75 1012.0
20260504231353 20 221 4.8 6.4 0.00 0.00 0.00 76 1012.0
20260504230854 20 68 1.6 6.4 0.00 0.00 0.00 75 1012.0
20260504230353 20 210 1.6 4.8 0.00 0.00 0.00 77 1012.0
20260504225853 20 318 4.8 8.0 0.00 0.00 0.00 77 1012.0
20260504225354 19 329 1.6 4.8 0.00 0.00 0.00 79 1012.0
20260504224853 18 193 0.0 4.8 0.00 0.00 0.00 82 1012.0
20260504224354 18 152 4.8 6.4 0.00 0.00 0.00 83 1012.0
20260504223854 18 116 1.6 6.4 0.00 0.00 0.00 84 1011.0
20260504223354 18 72 3.2 4.8 0.00 0.00 0.00 85 1011.0
20260504222854 18 114 0.0 6.4 0.00 0.00 0.00 85 1011.0
20260504222353 18 184 0.0 4.8 0.00 0.00 0.00 85 1011.0
20260504221853 17 306 1.6 4.8 0.00 0.00 0.00 87 1012.0
20260504221353 17 170 0.0 3.2 0.00 0.00 0.00 87 1011.0
20260504220853 17 295 0.0 4.8 0.00 0.00 0.00 87 1011.0
20260504220354 17 202 1.6 4.8 0.00 0.00 0.00 87 1011.0
20260504215853 17 218 3.2 4.8 0.00 0.00 0.00 86 1011.0
20260504215353 17 265 0.0 6.4 0.00 0.00 0.00 86 1011.0
20260504214853 17 354 4.8 8.0 0.00 0.00 0.00 85 1011.0
20260504214353 17 336 1.6 4.8 0.00 0.00 0.00 85 1011.0
20260504213853 17 337 0.0 3.2 0.00 0.00 0.00 85 1011.0
20260504213354 17 47 0.0 3.2 0.00 0.00 0.00 85 1011.0
20260504212854 17 290 1.6 3.2 0.00 0.00 0.00 85 1011.0
20260504212353 18 159 0.0 4.8 0.00 0.00 0.00 83 1011.0
20260504211853 18 226 1.6 4.8 0.00 0.00 0.00 83 1011.0
20260504211354 18 294 3.2 4.8 0.00 0.00 0.00 82 1011.0
20260504210855 18 115 1.6 4.8 0.00 0.00 0.00 82 1011.0
20260504210354 18 303 0.0 4.8 0.00 0.00 0.00 82 1010.0
20260504205853 18 14 0.0 3.2 0.00 0.00 0.00 82 1010.0
20260504205353 17 280 3.2 3.2 0.00 0.00 0.00 83 1010.0
20260504204854 17 275 3.2 3.2 0.00 0.00 0.00 85 1010.0
20260504204353 17 220 1.6 6.4 0.00 0.00 0.00 85 1010.0
20260504203854 18 197 1.6 4.8 0.00 0.00 0.00 83 1010.0
20260504203353 18 359 1.6 4.8 0.00 0.00 0.00 83 1010.0
20260504202854 18 236 1.6 4.8 0.00 0.00 0.00 83 1010.0
20260504202354 18 317 1.6 4.8 0.00 0.00 0.00 84 1010.0
20260504201854 18 231 0.0 4.8 0.00 0.00 0.00 87 1010.0
20260504201354 18 62 0.0 4.8 0.00 0.00 0.00 88 1010.0
20260504200853 18 268 1.6 4.8 0.00 0.00 0.00 90 1010.0
20260504200353 18 230 4.8 6.4 0.00 0.00 0.00 92 1009.0
20260504195854 18 295 3.2 4.8 0.00 0.00 0.00 93 1009.0
20260504195354 18 232 3.2 6.4 0.00 0.00 0.00 92 1010.0
20260504194853 18 249 0.0 4.8 0.00 0.00 0.00 92 1009.0
20260504194355 18 232 0.0 3.2 0.00 0.00 0.00 93 1009.0
20260504193853 18 71 3.2 6.4 0.00 0.00 0.00 94 1009.0
20260504193353 18 296 3.2 4.8 0.00 0.00 0.00 95 1009.0
20260504192854 18 217 1.6 4.8 0.00 0.00 0.00 95 1009.0
20260504192354 18 302 3.2 3.2 0.00 0.00 0.00 94 1009.0
20260504191853 18 359 3.2 6.4 0.00 0.00 0.00 93 1009.0
20260504191354 18 177 0.0 4.8 0.00 0.00 0.00 96 1010.0
20260504190853 18 289 0.0 4.8 0.00 0.00 0.00 96 1010.0
20260504190354 18 324 3.2 4.8 0.00 0.00 0.00 97 1009.0
20260504185853 18 299 0.0 4.8 0.00 0.00 0.00 97 1009.0
20260504185353 18 222 3.2 4.8 0.00 0.00 0.00 97 1009.0
20260504184854 18 152 3.2 4.8 0.00 0.00 0.00 97 1009.0
20260504184353 18 245 3.2 4.8 0.00 0.00 0.00 97 1009.0
20260504183854 18 253 1.6 4.8 0.00 0.00 0.00 98 1009.0
20260504183354 18 108 1.6 4.8 0.00 0.00 0.00 98 1009.0
20260504182854 18 18 3.2 8.0 0.00 0.00 0.00 98 1009.0
20260504182353 18 171 4.8 6.4 0.00 0.00 0.00 98 1009.0
20260504181854 18 31 1.6 4.8 0.00 0.00 0.00 98 1009.0
20260504181354 18 7 4.8 6.4 0.00 0.00 0.00 97 1009.0
20260504180854 18 296 1.6 4.8 0.00 0.00 0.00 97 1009.0
20260504180354 18 88 3.2 4.8 0.00 0.00 0.00 98 1009.0
20260504175854 18 137 3.2 4.8 0.00 0.00 0.00 97 1009.0
20260504175355 18 107 3.2 4.8 0.00 0.00 0.00 98 1009.0
20260504174853 18 252 1.6 6.4 0.00 0.00 0.00 98 1009.0
20260504174353 18 171 1.6 6.4 0.00 0.00 0.00 97 1009.0
20260504173854 18 271 3.2 8.0 0.00 0.00 0.00 97 1009.0
20260504172945 18 175 1.6 8.0 0.00 0.00 0.00 97 1010.0
20260504172354 18 21 1.6 6.4 0.00 0.00 0.00 97 1010.0
20260504171853 18 112 1.6 6.4 0.00 0.00 0.00 96 1010.0
20260504171354 18 254 3.2 6.4 0.00 0.00 0.00 96 1010.0
20260504170854 18 241 3.2 8.0 0.00 0.00 0.00 96 1010.0
20260504170354 18 238 4.8 9.7 0.00 0.00 0.00 97 1009.0
20260504160354 20 327 0.0 4.8 0.00 0.00 0.00 93 1009.0
20260504150853 20 225 3.2 4.8 0.00 0.00 0.00 92 1010.0
20260504150353 20 241 3.2 4.8 0.00 0.00 0.00 91 1010.0
20260504140853 20 240 6.4 6.4 0.00 0.00 0.00 91 1010.0
20260504140354 20 249 3.2 4.8 0.00 0.00 0.00 90 1010.0
20260504130354 20 260 3.2 6.4 0.00 0.00 0.00 91 1009.0
20260504110353 22 239 1.6 8.0 0.00 0.00 0.00 80 1009.0
20260504100353 23 236 8.0 9.7 0.00 0.00 0.00 77 1009.0